Погода в Широкундыше

Россия / Республика Марий Эл     56°44′21″N   46°54′57″E
темп.,
°C
ветер,
м/с
пор.,
м/с
влажн.,
%
обл.,
%
осадки,
мм/ч
давл.,
гПа
погр.,
м
27 октября, ср
ср2700:00+1юз41083100 0.0 1017408
03:00+1юз4108589 0.0 1016393
06:000юз3108899 0.0 1016384
09:00+2юз41082100 0.0 1015459
12:00+4юз41072100 0.0 1014621
15:00+4юз51269100 0.2 1012735
18:00+5юз51367100 0.0 1010843
21:00+5зюз61370100 0.0 1008971
28 октября, чт
чт2800:00+3зюз51296100 0.3 1008716
03:00+4з51293100 0.3 1008872
06:00+5з51182100 0.1 10091094
09:00+5зюз4108598 0.2 1010684
12:00+7зюз4876100 0.0 1010780
15:00+6зюз3780100 0.0 1010812
18:00+5з2490100 0.4 1011747
21:00+3ссв61095100 1.1 1014618
29 октября, пт
пт2900:00−1ссв511736 0.1 1019644
03:00−3ссв411745 0.1 1023666
06:00−3с49715 0.0 1027633
09:00−2с35615 0.0 1029571
12:000с23445 0.0 1031770
15:00+1зюз114186 0.0 1031612
18:00−2юз265899 0.0 1031154
21:000юз41155100 0.0 1029550
30 октября, сб
сб3000:00+1юз51549100 0.1 1027633
03:00+2юз6165287 0.1 1026686
06:00+2зюз5147299 0.0 1025537
09:00+3зюз41483100 0.0 1025488
12:00+6зюз5138078 0.0 1025553
15:00+6зюз4128551 0.0 1025553
18:00+4зюз4139259 0.0 1026389
21:00+3зюз3119455 0.0 1027314
31 октября, вс
вс3100:00+2зюз3109536 0.0 1027259
03:00+2зюз3109455 0.0 1027239
06:00+2юз3119390 0.0 1026266
09:00+3юз4138480 0.0 1026386
12:00+7юз5136962 0.0 1025526
15:00+8зюз413695 0.0 1024618
18:00+6юз413795 0.0 1025476
21:00+5зюз413845 0.0 1025432